DMC3-FM1

Last updated on Thu Oct 30 2025 00:02:38 GMT+0000 (Coordinated Universal Time)

1 40715U 15032A 25302.57888634 .00001034 00000+0 12620-3 0 9990 2 40715 97.6744 171.3718 0007100 91.6575 268.5453 14.85323381555674
UTC large
Height (km)
Speed (km/s)
/
Latitude / Longitude
Inclination (degrees)
Orbital Period (minutes)
Azimuth
Elevation
Range (km)
Doppler Factor

Next 0 passes for location: London (51.5072 / 0.1276)

Sorry there are no passes over London.